VTK601 BGGH-CYFB

Flight info

Callsign VTK601
Flight time N/A
Altitude 38000
Route AMABI1A AMABI DCT MUSVA/N0439F380 DCT DUTUM DCT BILKU
Aircraft A319/M-SDE3FGHIRWY/LB1

Departure

Time 2026-04-25 13:20
Airport Nuuk International Airport (BGGH)

Arrival

Time N/A
Airport Iqaluit Airport (CYFB)
Time Latitude Longitude Altitude Speed Heading
2026-04-25 13:20 64.22206 -51.70966 2728 ft 199 kts 270°
2026-04-25 13:20 64.21869 -51.74287 3125 ft 225 kts 257°
2026-04-25 13:20 64.21378 -51.77886 3639 ft 248 kts 255°
2026-04-25 13:20 64.20814 -51.81815 4369 ft 265 kts 255°
2026-04-25 13:21 64.20226 -51.85877 5415 ft 270 kts 256°
2026-04-25 13:21 64.19638 -51.89991 6496 ft 273 kts 257°
2026-04-25 13:21 64.19048 -51.94151 7536 ft 275 kts 257°
2026-04-25 13:21 64.18462 -51.98331 8601 ft 276 kts 256°
2026-04-25 13:22 64.17878 -52.02527 9678 ft 276 kts 256°
2026-04-25 13:22 64.17292 -52.06752 10586 ft 284 kts 255°
2026-04-25 13:22 64.16674 -52.11243 10954 ft 307 kts 255°
2026-04-25 13:23 64.15287 -52.21298 11490 ft 354 kts 255°
2026-04-25 13:23 64.14525 -52.26754 12079 ft 363 kts 255°
2026-04-25 13:23 64.13750 -52.32285 12860 ft 366 kts 254°
2026-04-25 13:23 64.12962 -52.37862 13657 ft 370 kts 254°
2026-04-25 13:24 64.12165 -52.43483 14403 ft 373 kts 254°
2026-04-25 13:24 64.11362 -52.49149 15114 ft 375 kts 254°
2026-04-25 13:24 64.10664 -52.54905 15806 ft 376 kts 261°
2026-04-25 13:24 64.10401 -52.60870 16499 ft 378 kts 270°
2026-04-25 13:25 64.10523 -52.66876 17169 ft 379 kts 274°
2026-04-25 13:25 64.10683 -52.72933 17823 ft 382 kts 274°
2026-04-25 13:25 64.10837 -52.79016 18451 ft 384 kts 273°
2026-04-25 13:25 64.10985 -52.85139 18999 ft 386 kts 273°
2026-04-25 13:26 64.11131 -52.91280 19514 ft 388 kts 273°
2026-04-25 13:26 64.11273 -52.97469 20015 ft 391 kts 273°
2026-04-25 13:26 64.11414 -53.03694 20508 ft 393 kts 273°
2026-04-25 13:26 64.11554 -53.09963 20993 ft 395 kts 273°
2026-04-25 13:27 64.11694 -53.16265 21451 ft 398 kts 273°
2026-04-25 13:27 64.11829 -53.22618 21906 ft 401 kts 273°
2026-04-25 13:27 64.11962 -53.29014 22341 ft 403 kts 273°
2026-04-25 13:27 64.12094 -53.35353 22764 ft 406 kts 273°
2026-04-25 13:28 64.12229 -53.41834 23202 ft 409 kts 273°
2026-04-25 13:28 64.12319 -53.46234 23485 ft 410 kts 273°
2026-04-25 13:28 64.12489 -53.54916 23995 ft 414 kts 273°
2026-04-25 13:28 64.12617 -53.61524 24356 ft 416 kts 273°
2026-04-25 13:29 64.12741 -53.68149 24707 ft 418 kts 273°
2026-04-25 13:29 64.12851 -53.74796 25055 ft 417 kts 272°
2026-04-25 13:29 64.12961 -53.81424 25390 ft 417 kts 273°
2026-04-25 13:30 64.13185 -53.94767 26130 ft 423 kts 273°
2026-04-25 13:30 64.13298 -54.01498 26522 ft 422 kts 273°
2026-04-25 13:30 64.13411 -54.08251 26876 ft 425 kts 273°
2026-04-25 13:31 64.13627 -54.21801 27570 ft 425 kts 272°
2026-04-25 13:31 64.13723 -54.28566 27919 ft 425 kts 273°
2026-04-25 13:31 64.13815 -54.35339 28307 ft 425 kts 273°
2026-04-25 13:31 64.13905 -54.42095 28743 ft 424 kts 273°
2026-04-25 13:32 64.13994 -54.48843 29194 ft 423 kts 273°
2026-04-25 13:32 64.14079 -54.55563 29671 ft 421 kts 273°
2026-04-25 13:32 64.14158 -54.62255 30154 ft 420 kts 273°
2026-04-25 13:32 64.14241 -54.68919 30598 ft 417 kts 273°
2026-04-25 13:33 64.14324 -54.75573 31000 ft 417 kts 273°
2026-04-25 13:33 64.14399 -54.82198 31462 ft 415 kts 273°
2026-04-25 13:33 64.14463 -54.88797 31890 ft 415 kts 273°
2026-04-25 13:33 64.14520 -54.95391 32329 ft 413 kts 273°
2026-04-25 13:34 64.14579 -55.01979 32749 ft 413 kts 272°
2026-04-25 13:34 64.14635 -55.08457 33163 ft 412 kts 273°
2026-04-25 13:34 64.14689 -55.15015 33560 ft 412 kts 273°
2026-04-25 13:34 64.14739 -55.21570 33946 ft 411 kts 273°
2026-04-25 13:35 64.14789 -55.28119 34336 ft 411 kts 273°
2026-04-25 13:35 64.14836 -55.34664 34672 ft 411 kts 273°
2026-04-25 13:35 64.14881 -55.41207 34983 ft 411 kts 273°
2026-04-25 13:35 64.14921 -55.47762 35302 ft 411 kts 273°
2026-04-25 13:36 64.14961 -55.54314 35612 ft 411 kts 273°
2026-04-25 13:36 64.14998 -55.60866 35912 ft 411 kts 272°
2026-04-25 13:36 64.15031 -55.67427 36185 ft 412 kts 272°
2026-04-25 13:36 64.15060 -55.73999 36429 ft 413 kts 273°
2026-04-25 13:37 64.15085 -55.80587 36696 ft 414 kts 273°
2026-04-25 13:37 64.15104 -55.87167 36982 ft 414 kts 273°
2026-04-25 13:37 64.15122 -55.93769 37245 ft 414 kts 273°
2026-04-25 13:37 64.15142 -56.00365 37498 ft 414 kts 273°
2026-04-25 13:38 64.15160 -56.06959 37749 ft 414 kts 273°
2026-04-25 13:38 64.15175 -56.13562 37997 ft 415 kts 272°
2026-04-25 13:38 64.15186 -56.20173 38245 ft 415 kts 272°
2026-04-25 13:38 64.15192 -56.26780 38389 ft 416 kts 272°
2026-04-25 13:39 64.15192 -56.33411 38408 ft 416 kts 272°
2026-04-25 13:39 64.15182 -56.46651 38406 ft 415 kts 272°
2026-04-25 13:40 64.15169 -56.59879 38432 ft 415 kts 272°
2026-04-25 13:40 64.15142 -56.73067 38424 ft 413 kts 272°
2026-04-25 13:41 64.15105 -56.86219 38439 ft 413 kts 272°
2026-04-25 13:41 64.15058 -56.99372 38459 ft 413 kts 272°
2026-04-25 13:42 64.14992 -57.12531 38459 ft 413 kts 272°
2026-04-25 13:42 64.14913 -57.25701 38459 ft 413 kts 272°
2026-04-25 13:43 64.14823 -57.38869 38483 ft 413 kts 272°
2026-04-25 13:43 64.14719 -57.52041 38482 ft 414 kts 272°
2026-04-25 13:44 64.14604 -57.65218 38498 ft 413 kts 272°
2026-04-25 13:44 64.14485 -57.78276 38508 ft 412 kts 272°
2026-04-25 13:45 64.14356 -57.91365 38503 ft 411 kts 271°
2026-04-25 13:45 64.14211 -58.04442 38506 ft 410 kts 271°
2026-04-25 13:46 64.14053 -58.17493 38516 ft 410 kts 271°
2026-04-25 13:46 64.13889 -58.30551 38512 ft 410 kts 271°
2026-04-25 13:47 64.13713 -58.43597 38514 ft 410 kts 271°
2026-04-25 13:47 64.13518 -58.56646 38509 ft 410 kts 272°
2026-04-25 13:48 64.13310 -58.69689 38529 ft 410 kts 271°
2026-04-25 13:48 64.13095 -58.82720 38537 ft 409 kts 271°
2026-04-25 13:49 64.12867 -58.95759 38551 ft 409 kts 271°
2026-04-25 13:49 64.12631 -59.08776 38555 ft 409 kts 271°
2026-04-25 13:50 64.12384 -59.21698 38551 ft 408 kts 271°
2026-04-25 13:50 64.12125 -59.34676 38558 ft 408 kts 271°
2026-04-25 13:51 64.11858 -59.47653 38570 ft 408 kts 271°
2026-04-25 13:51 64.11576 -59.60614 38570 ft 407 kts 271°
2026-04-25 13:52 64.11275 -59.73555 38579 ft 406 kts 271°
2026-04-25 13:52 64.10965 -59.86467 38577 ft 406 kts 271°
2026-04-25 13:53 64.10649 -59.99381 38533 ft 406 kts 271°
2026-04-25 13:53 64.10320 -60.12289 38551 ft 407 kts 271°
2026-04-25 13:54 64.09976 -60.25210 38559 ft 407 kts 271°
2026-04-25 13:54 64.09626 -60.38127 38569 ft 407 kts 271°
2026-04-25 13:55 64.09331 -60.48856 38596 ft 406 kts 271°
2026-04-25 13:55 64.08892 -60.63830 38597 ft 406 kts 271°
2026-04-25 13:56 64.08574 -60.74607 38592 ft 405 kts 270°
2026-04-25 13:56 64.08184 -60.87461 38600 ft 405 kts 270°
2026-04-25 13:57 64.07778 -61.00305 38601 ft 405 kts 270°
2026-04-25 13:57 64.07362 -61.13139 38596 ft 405 kts 270°
2026-04-25 13:58 64.06933 -61.25980 38605 ft 405 kts 270°
2026-04-25 13:58 64.06498 -61.38732 38556 ft 405 kts 271°
2026-04-25 13:59 64.06043 -61.51570 38571 ft 406 kts 270°
2026-04-25 13:59 64.05584 -61.64417 38585 ft 406 kts 270°
2026-04-25 14:00 64.05195 -61.75106 38602 ft 407 kts 270°
2026-04-25 14:00 64.04624 -61.90135 38615 ft 407 kts 270°
2026-04-25 14:01 64.04129 -62.03021 38612 ft 407 kts 270°